Regional Weather Roundup
Issued by NWS

Home | Current Version | Previous Version | Text Only | Print | Product List | Glossary Off
Versions: 1 2 3 4 5 6 7 8 9 10 11 12 13 14 15 16 17 18 19 20 21 22 23 24 25 26 27 28 29 30 31 32 33 34 35 36 37 38 39 40 41 42 43 44 45 46 47 48 49 50

000
ASUS43 KOAX 211802
RWRNE

WEATHER ROUNDUP FOR NEBRASKA
NATIONAL WEATHER SERVICE OMAHA NE
100 PM CDT MON AUG 21 2017

NOTES: SATELLITE DATA IS BEING USED TO AUGMENT CLOUD COVER ABOVE
       12000 FEET.
       "FAIR" INDICATES FEW OR NO CLOUDS BELOW 12,000 FEET WITH NO
       SIGNIFICANT WEATHER AND/OR OBSTRUCTIONS TO VISIBILITY.


NEZ001>004-019>022-054>056-211900-
NEBRASKA PANHANDLE

CITY           SKY/WX    TMP DP  RH WIND       PRES   REMARKS
SCOTTSBLUFF    SUNNY     75  58  55 N10       30.09R
6HR MIN TEMP:  61; 6HR MAX TEMP:  82;

ALLIANCE       MOSUNNY   71  61  70 N16G23    30.07R
6HR MIN TEMP:  67; 6HR MAX TEMP:  77;

CHADRON        SUNNY     72  53  51 N13G23    30.08R
6HR MIN TEMP:  63; 6HR MAX TEMP:  79;

GORDON         FAIR      69  61  74 N14G22    30.07R
6HR MIN TEMP:  69; 6HR MAX TEMP:  76;

KIMBALL        SUNNY     73  51  46 N15G22    30.14R
SIDNEY         SUNNY     74  54  49 N16       30.09R
6HR MIN TEMP:  60; 6HR MAX TEMP:  85;

$$

NEZ057>060-069>072-079>082-211900-
SOUTHWEST NEBRASKA

CITY           SKY/WX    TMP DP  RH WIND       PRES   REMARKS
NORTH PLATTE   SUNNY     79  70  74 W5        29.94S
6HR MIN TEMP:  70; 6HR MAX TEMP:  83;

IMPERIAL       SUNNY     79  64  60 NW3       29.97F
6HR MIN TEMP:  60; 6HR MAX TEMP:  83;

LEXINGTON      SUNNY     79  65  63 S7        29.94R
MCCOOK         MOSUNNY   80  62  54 S14       29.95S
6HR MIN TEMP:  67; 6HR MAX TEMP:  87;

OGALLALA       SUNNY     75  68  78 N3        29.99S
$$

NEZ005>010-023>029-035>040-094-211900-
NORTH CENTRAL NEBRASKA

CITY           SKY/WX    TMP DP  RH WIND       PRES   REMARKS
VALENTINE      CLOUDY    66  61  84 E6        30.00F
6HR MIN TEMP:  64; 6HR MAX TEMP:  74; 6HR PCP: TRACE;

AINSWORTH      CLOUDY    64  64  97 NE9       30.01R
BROKEN BOW     SUNNY     83  67  58 SW7       29.93R
6HR MIN TEMP:  69; 6HR MAX TEMP:  85;

O`NEILL        CLOUDY    74  72  92 NW20G26   29.99R
ORD            SUNNY     79  69  71 CALM      29.92R
6HR MIN TEMP:  69; 6HR MAX TEMP:  82;

THEDFORD       CLOUDY    76  68  74 N8        29.99S
$$

NEZ041-046>049-061>064-073>077-083>087-211900-
SOUTH CENTRAL NEBRASKA

CITY           SKY/WX    TMP DP  RH WIND       PRES   REMARKS
GRAND ISLAND   MOSUNNY   80  69  69 S13       29.94S
6HR MIN TEMP:  68; 6HR MAX TEMP:  84;

AURORA         CLOUDY    78  70  74 S8        29.95S
HASTINGS       PTSUNNY   80  66  62 S8        29.96S
6HR MIN TEMP:  73; 6HR MAX TEMP:  83;

HEBRON         CLOUDY    78  69  73 SE6       29.97F
HOLDREGE       SUNNY     79  64  59 S13       29.95S
KEARNEY        SUNNY     79  68  69 S12       29.95R
$$

NEZ011>018-030>034-042>045-211900-
NORTHEAST NEBRASKA

CITY           SKY/WX    TMP DP  RH WIND       PRES   REMARKS
NORFOLK        SUNNY     77  70  79 S15       29.92F
6HR MIN TEMP:  66; 6HR MAX TEMP:  81;

ALBION         MOSUNNY   79  71  76 S8        29.93R
BLAIR          CLOUDY    76  68  78 S10       29.96F
COLUMBUS       PTSUNNY   76  70  82 SE13      29.94
FREMONT        PTSUNNY   75  67  76 S12G21    29.96F
TEKAMAH        MOSUNNY   77  68  73 S13       29.93F
6HR MIN TEMP:  70; 6HR MAX TEMP:  80;

WAYNE          PTSUNNY   76  73  91 S17G26    29.92S
$$

NEZ050>053-065>068-078-088>093-211900-
SOUTHEAST NEBRASKA

CITY           SKY/WX    TMP DP  RH WIND       PRES   REMARKS
LINCOLN        CLOUDY    78  69  73 S10       29.95F
6HR MIN TEMP:  70; 6HR MAX TEMP:  81;

OMAHA EPPLEY   CLOUDY    78  67  68 SE17      29.96F
6HR MIN TEMP:  68; 6HR MAX TEMP:  80; 6HR PCP:  0.74;

BEATRICE       CLOUDY    80  71  72 S14G20    29.98R
FALLS CITY     LGT RAIN  76  73  91 E9        29.98F
6HR MIN TEMP:  73; 6HR MAX TEMP:  76; 6HR PCP:  0.02;

NEBRASKA CITY  CLOUDY    73  73 100 SE15G21   30.00R
PLATTSMOUTH    CLOUDY    75  68  79 SE15G23   29.98S
$$

NEZ044-045-051>053-067-211900-
OMAHA AREA

CITY           SKY/WX    TMP DP  RH WIND       PRES   REMARKS
OMAHA EPPLEY   CLOUDY    78  67  68 SE17      29.96F
6HR MIN TEMP:  68; 6HR MAX TEMP:  80; 6HR PCP:  0.74;

BLAIR          CLOUDY    76  68  78 S10       29.96F
FREMONT        PTSUNNY   75  67  76 S12G21    29.96F
MILLARD        CLOUDY    78  71  79 SE13      29.96F
OFFUTT AFB     CLOUDY    78  69  74 SE14      29.95F
PLATTSMOUTH    CLOUDY    75  68  79 SE15G23   29.98S
WAHOO          FAIR      76  70  81 SE13      29.95F
$$



USA.gov is the U.S. government's official web portal to all federal, state and local government web resources and services.